カタログに戻る

STARLINK-36253

運用中通信SSO
NORAD 68028·PAYLOAD·🇺🇸 United States

打ち上げ Mar 1, 2026 から Vandenberg Space Force Base

Loading…

次のパス (今後24時間)

TLE

最新Source: CelesTrak SupGP

元期: Sep 14, 2026, 22:24 UTC

1 68028C 26040P   26257.93381944  .00129940  00000+0  22070-2 0  2573
2 68028  97.2808 205.4405 0006644  95.4763 277.9411 15.51404983    16

AllMySatでSTARLINK-36253をリアルタイム追跡

Download on the App Store